NADEZHDA 7

Satellite information

Favourite Embed

Satellite Type and Status

PAYLOADIN ORBIT

Key statistics

Satellite NADEZHDA 7 at a glance.

Uptime

8321

Days in orbit

Revolutions

≈ 13.7

Per day

Orbit

LEO

Low Earth Orbit

Inclination

82.9

Latest

Satellite identification and parameters

Extended collection of information and parameters for NADEZHDA 7.

Object identification

Identified? True

Debris? False

Object name: NADEZHDA 7

International designator: 2002-046A

Object number (NORAD): 27534

Object ID (CCSDS): 27534

Country: COMMONWEALTH OF INDEPENDENT STATES (CIS)

Current information (Y/N): Y

RCS size: LARGE

Orbital parameters

Period: 104.886 minutes

Inclination: 82.9335 deg

SMA: 7367.229 km

Apoapsis: 1015.237 km

Periapsis: 962.95 km

RAAN: 225.4158 deg

Eccentricy: 0.0035486

Argument of periapsis: 208.5442 deg

Mean anomaly: 261.8068 deg

Mean motion: 13.72924105 rev/day

Mean motion (dot): 0.0000006 rev/day2

B* drag term: 0.000048126 1/REarth

Two-line elements (TLE)

Creation date: July 7, 2025, 6:34 p.m.

Reference frame: TEME

Reference center: EARTH

Epoch: July 7, 2025, 1:45 p.m. UTC

TLE line 0: 0 NADEZHDA 7

TLE line 1: 1 27534U 02046A 25188.57349929 .00000060 00000-0 48126-4 0 9996

TLE line 2: 2 27534 82.9335 225.4158 0035486 208.5442 261.8068 13.72924105141271

Live tracking on map

Real-time ground track for satellite NADEZHDA 7.

In-orbit conjunctions

A list of the most updated potential collisions computed for object NADEZHDA 7.

Target Orbit TCA Probability of collision Miss distance Type
FENGYUN 1C DEB SSO 2025-06-11 01:51:07 0.0002212829 612.0 (m) DEBRIS
DELTA 1 DEB SSO 2024-11-02 13:10:24 0.0003102808 132.0 (m) DEBRIS
COSMOS 2251 DEB LEO 2024-09-14 14:08:50 0.00158889 63.0 (m) DEBRIS

Associated space launch

Nadezhda 7, also called Nadezhda -M, was a Russian navigational satellite. It was to participate in the international search and rescue (SAR) network known as COSPAS-SARSAT, for ships at sea.

NADEZHDA 7 was lifted into orbit during the mission ‘Kosmos-3M | Nadezhda-M’, on board a Kosmos-3M space rocket.

The launch took place on Sept. 26, 2002, 2:27 p.m. from 132/1 (132L).

For more information about the launch, click the button.

Launch to space Kosmos-3M | Nadezhda-M
Kosmos-3M | Nadezhda-M

Agency: N/A

Status: Launch Successful

Launch date: Sept. 26, 2002, 2:27 p.m. UTC

Rocket: Kosmos-3M

Launch pad: 132/1 (132L)

Location: Plesetsk Cosmodrome, Russian Federation

...

Latest news about this satellite

There are no fresh news available about this satellite. Check back as we update our databases every day.


Newsletter sign-up

Weekly statistics, charts and insights to help you stay on top of the space industry.